Starlink 30711

operational
NORAD ID: 57940 Int'l Des: 2023-148 Owner: SPXS Country: US Constellation: starlink
LEOCIRCULAR

About Starlink 30711

Description loading...

Live Position

Loading 3D Globe...

Upcoming Passes

Altitude History

Altitude vs Time

uPlot chart will show altitude changes over time

Two-Line Element Set

1 57940U 23148F 25304.13770258 -.00000947 00000-0 -19829-4 0 9995
2 57940 53.1623 266.2296 0001572 92.6052 267.5129 15.30201932118580
Epoch: Oct 31, 2025 • Age: 8 hours

Current Status

Altitude 484.2 km
Velocity 7.62 km/s
Sub-Earth Point -27.87°S, 36.72°E
Launch Date Sep 25, 2023
Age 2 years
Type internet

Technical Details

Classification Payload
Mass 730.00 kg
Dry Mass 700.00 kg
Total Mass 730.00 kg
Length 0.30 m
Diameter 4.10 m
Span 29.00 m
Shape Box + pan
Manufacturer SPXS
Bus Type Starlink V2M
Phase Status In Orbit
Owner/State SPXS/US

Large Constellations

Loading constellations...